Index of /20260507/WXO-DD/model_gdps/15km/00/076
Name Last modified Size Description
Parent Directory -
20260507T00Z_MSC_GDPS_AirTemp_AGL-120m_LatLon0.15_PT076H.grib2 2026-05-07 04:11 900K
20260507T00Z_MSC_GDPS_AirTemp_AGL-2m_LatLon0.15_PT076H.grib2 2026-05-07 04:11 1.0M
20260507T00Z_MSC_GDPS_AirTemp_AGL-40m_LatLon0.15_PT076H.grib2 2026-05-07 04:11 919K
20260507T00Z_MSC_GDPS_AirTemp_AGL-80m_LatLon0.15_PT076H.grib2 2026-05-07 04:11 908K
20260507T00Z_MSC_GDPS_Albedo_Sfc_LatLon0.15_PT076H.grib2 2026-05-07 04:11 244K
20260507T00Z_MSC_GDPS_ConvectivePrecip-Accum_Sfc_LatLon0.15_PT076H.grib2 2026-05-07 04:11 3.1M
20260507T00Z_MSC_GDPS_DewPointDepression_AGL-2m_LatLon0.15_PT076H.grib2 2026-05-07 04:11 591K
20260507T00Z_MSC_GDPS_DewPoint_AGL-2m_LatLon0.15_PT076H.grib2 2026-05-07 04:11 598K
20260507T00Z_MSC_GDPS_DownwardLongwaveRadiationFlux-Accum_Sfc_LatLon0.15_PT076H.grib2 2026-05-07 04:11 677K
20260507T00Z_MSC_GDPS_DownwardShortwaveRadiationFlux-Accum_Sfc_LatLon0.15_PT076H.grib2 2026-05-07 04:11 880K
20260507T00Z_MSC_GDPS_FreezingRain-Accum1h_Sfc_LatLon0.15_PT076H.grib2 2026-05-07 04:11 44K
20260507T00Z_MSC_GDPS_FreezingRain-Accum_Sfc_LatLon0.15_PT076H.grib2 2026-05-07 04:11 232K
20260507T00Z_MSC_GDPS_IcePellets-Accum1h_Sfc_LatLon0.15_PT076H.grib2 2026-05-07 04:11 14K
20260507T00Z_MSC_GDPS_IcePellets-Accum_Sfc_LatLon0.15_PT076H.grib2 2026-05-07 04:11 103K
20260507T00Z_MSC_GDPS_LatentHeatNetFlux_Sfc_LatLon0.15_PT076H.grib2 2026-05-07 04:11 535K
20260507T00Z_MSC_GDPS_NetLongwaveRadiationFlux-Accum_Sfc_LatLon0.15_PT076H.grib2 2026-05-07 04:11 1.0M
20260507T00Z_MSC_GDPS_NetShortwaveRadiationFlux-Accum_Sfc_LatLon0.15_PT076H.grib2 2026-05-07 04:11 1.1M
20260507T00Z_MSC_GDPS_O3MixingRatio_Sfc_LatLon0.15_PT076H.grib2 2026-05-07 04:55 1.9M
20260507T00Z_MSC_GDPS_O3_EAtm_LatLon0.15_PT076H.grib2 2026-05-07 04:55 2.5M
20260507T00Z_MSC_GDPS_PlanetaryBoundaryLayerHeight_Sfc_LatLon0.15_PT076H.grib2 2026-05-07 04:11 2.4M
20260507T00Z_MSC_GDPS_Precip-Accum1h_Sfc_LatLon0.15_PT076H.grib2 2026-05-07 04:11 3.2M
20260507T00Z_MSC_GDPS_Precip-Accum_Sfc_LatLon0.15_PT076H.grib2 2026-05-07 04:11 4.9M
20260507T00Z_MSC_GDPS_PrecipRate_Sfc_LatLon0.15_PT076H.grib2 2026-05-07 04:11 3.2M
20260507T00Z_MSC_GDPS_Pressure_MSL_LatLon0.15_PT076H.grib2 2026-05-07 04:11 822K
20260507T00Z_MSC_GDPS_Pressure_Sfc_LatLon0.15_PT076H.grib2 2026-05-07 04:11 1.1M
20260507T00Z_MSC_GDPS_RadiativeTemp_Sfc_LatLon0.15_PT076H.grib2 2026-05-07 04:11 655K
20260507T00Z_MSC_GDPS_Rain-Accum1h_Sfc_LatLon0.15_PT076H.grib2 2026-05-07 04:11 1.7M
20260507T00Z_MSC_GDPS_Rain-Accum_Sfc_LatLon0.15_PT076H.grib2 2026-05-07 04:11 3.8M
20260507T00Z_MSC_GDPS_RelativeHumidity_AGL-2m_LatLon0.15_PT076H.grib2 2026-05-07 04:11 1.1M
20260507T00Z_MSC_GDPS_Runoff-Accum_Sfc_LatLon0.15_PT076H.grib2 2026-05-07 04:11 114K
20260507T00Z_MSC_GDPS_SensibleHeatNetFlux_Sfc_LatLon0.15_PT076H.grib2 2026-05-07 04:11 643K
20260507T00Z_MSC_GDPS_Snow-Accum1h_Sfc_LatLon0.15_PT076H.grib2 2026-05-07 04:11 1.1M
20260507T00Z_MSC_GDPS_Snow-Accum_Sfc_LatLon0.15_PT076H.grib2 2026-05-07 04:11 1.9M
20260507T00Z_MSC_GDPS_SnowDepth_Sfc_LatLon0.15_PT076H.grib2 2026-05-07 04:11 1.7M
20260507T00Z_MSC_GDPS_SoilTemp_DBS-0to10cm_LatLon0.15_PT076H.grib2 2026-05-07 04:11 506K
20260507T00Z_MSC_GDPS_SoilTemp_Sfc_LatLon0.15_PT076H.grib2 2026-05-07 04:11 573K
20260507T00Z_MSC_GDPS_SoilVolumetricWaterContent_DBS-0to10cm_LatLon0.15_PT076H.grib2 2026-05-07 04:11 599K
20260507T00Z_MSC_GDPS_SoilVolumetricWaterContent_DBS-0to1cm_LatLon0.15_PT076H.grib2 2026-05-07 04:11 650K
20260507T00Z_MSC_GDPS_SpecificHumidity_AGL-120m_LatLon0.15_PT076H.grib2 2026-05-07 04:11 1.1M
20260507T00Z_MSC_GDPS_SpecificHumidity_AGL-2m_LatLon0.15_PT076H.grib2 2026-05-07 04:11 1.2M
20260507T00Z_MSC_GDPS_SpecificHumidity_AGL-40m_LatLon0.15_PT076H.grib2 2026-05-07 04:11 1.1M
20260507T00Z_MSC_GDPS_SpecificHumidity_AGL-80m_LatLon0.15_PT076H.grib2 2026-05-07 04:11 1.1M
20260507T00Z_MSC_GDPS_SpecificHumidity_Sfc_LatLon0.15_PT076H.grib2 2026-05-07 04:11 668K
20260507T00Z_MSC_GDPS_TotalCloudCover_Sfc_LatLon0.15_PT076H.grib2 2026-05-07 04:11 820K
20260507T00Z_MSC_GDPS_UVIndex-ClearSky_Sfc_LatLon0.15_PT076H.grib2 2026-05-07 04:55 1.0M
20260507T00Z_MSC_GDPS_UVIndex_Sfc_LatLon0.15_PT076H.grib2 2026-05-07 04:55 1.5M
20260507T00Z_MSC_GDPS_UpwardLongwaveRadiationFlux_NTAtm_LatLon0.15_PT076H.grib2 2026-05-07 04:11 830K
20260507T00Z_MSC_GDPS_WindDir_AGL-10m_LatLon0.15_PT076H.grib2 2026-05-07 04:11 1.3M
20260507T00Z_MSC_GDPS_WindDir_AGL-120m_LatLon0.15_PT076H.grib2 2026-05-07 04:11 1.3M
20260507T00Z_MSC_GDPS_WindDir_AGL-40m_LatLon0.15_PT076H.grib2 2026-05-07 04:11 1.4M
20260507T00Z_MSC_GDPS_WindDir_AGL-80m_LatLon0.15_PT076H.grib2 2026-05-07 04:11 1.3M
20260507T00Z_MSC_GDPS_WindDir_IsbL-0700_LatLon0.15_PT076H.grib2 2026-05-07 04:11 1.6M
20260507T00Z_MSC_GDPS_WindGust-Max_AGL-10m_LatLon0.15_PT076H.grib2 2026-05-07 04:11 2.2M
20260507T00Z_MSC_GDPS_WindGust-Min_AGL-10m_LatLon0.15_PT076H.grib2 2026-05-07 04:11 2.2M
20260507T00Z_MSC_GDPS_WindGust_AGL-10m_LatLon0.15_PT076H.grib2 2026-05-07 04:11 2.1M
20260507T00Z_MSC_GDPS_WindSpeed_AGL-10m_LatLon0.15_PT076H.grib2 2026-05-07 04:11 1.1M
20260507T00Z_MSC_GDPS_WindSpeed_AGL-120m_LatLon0.15_PT076H.grib2 2026-05-07 04:11 1.2M
20260507T00Z_MSC_GDPS_WindSpeed_AGL-40m_LatLon0.15_PT076H.grib2 2026-05-07 04:11 1.2M
20260507T00Z_MSC_GDPS_WindSpeed_AGL-80m_LatLon0.15_PT076H.grib2 2026-05-07 04:11 1.2M
20260507T00Z_MSC_GDPS_WindSpeed_IsbL-0700_LatLon0.15_PT076H.grib2 2026-05-07 04:11 1.5M
20260507T00Z_MSC_GDPS_WindU_AGL-10m_LatLon0.15_PT076H.grib2 2026-05-07 04:11 1.3M
20260507T00Z_MSC_GDPS_WindU_AGL-120m_LatLon0.15_PT076H.grib2 2026-05-07 04:11 1.0M
20260507T00Z_MSC_GDPS_WindU_AGL-40m_LatLon0.15_PT076H.grib2 2026-05-07 04:11 958K
20260507T00Z_MSC_GDPS_WindU_AGL-80m_LatLon0.15_PT076H.grib2 2026-05-07 04:11 1.0M
20260507T00Z_MSC_GDPS_WindU_IsbL-0700_LatLon0.15_PT076H.grib2 2026-05-07 04:11 1.2M
20260507T00Z_MSC_GDPS_WindV_AGL-10m_LatLon0.15_PT076H.grib2 2026-05-07 04:11 1.3M
20260507T00Z_MSC_GDPS_WindV_AGL-120m_LatLon0.15_PT076H.grib2 2026-05-07 04:11 967K
20260507T00Z_MSC_GDPS_WindV_AGL-40m_LatLon0.15_PT076H.grib2 2026-05-07 04:11 960K
20260507T00Z_MSC_GDPS_WindV_AGL-80m_LatLon0.15_PT076H.grib2 2026-05-07 04:11 966K
20260507T00Z_MSC_GDPS_WindV_IsbL-0700_LatLon0.15_PT076H.grib2 2026-05-07 04:11 1.2M